星链-6204 (STARLINK-6204 )

导读

STARLINK-6204是美国SpaceX公司星链星座中的卫星,于2023年5月10日发射,属于星链第二代组网卫星。星链旨在构建全球覆盖的低轨卫星互联网,该卫星运行在约550公里近地轨道,配备相控阵通信天线与氪离子推进系统,支持高速宽带网络接入,可为全球偏远地区提供低延迟互联网服务,是SpaceX构建大规模低轨星座的重要组成部分。

Basic Information
目录编号:
56488
目录名称:
STARLINK-6204
国际标识:
2023-064AS
轨道中心:
EARTH
卫星名称:
星链-6204
卫星全名:
星链-6204 (STARLINK-6204 )
卫星状态:
在轨 (已飞行1131 天)
发射日期:
2023-05-10 UTC
国别 :
美国 (US)
星等 :
--
Orbit Information
数据来源 国际轨道数据 AOE轨道数据
星历时间 2026-06-14T21:58:54+0800
8小时前
查看轨道信息
2026-06-12T03:00:00+0800
3天前
查看轨道信息
半长轴 6950.066km 6950.185km
偏心率 0.0003046 0.0003364
轨道倾角 69.998° 69.999°
近地点辐角 274.391° 274.076°
升交点赤经 220.250° 227.285°
平近点角 85.690° 156.223°
近地点 569.812km 569.709km
远地点 574.046km 574.387km
周期 96.104分钟 96.107分钟
每日圈数 14.983711 14.983326
Detailed Information
固有亮度:
5
最大亮度:
2.5
卫星平台:
Starlink v1.5
覆盖范围:
全球
运营商:
太空探索技术公司
运营商所在国:
美国
制造商(研发单位):
太空探索技术公司
制造商所在国:
美国
使用方式:
暂无
Satellite Introduction
星链(Starlink)计划是由太空探索技术公司(SpaceX)提出的一个巨型低轨卫星互联网星座项目,计划在2019年至2024年间在太空搭建由约1.2万颗卫星组成的“星链”网络,其中1584颗将部署在地球上空550千米处的近地轨道,并从2020年开始工作。该卫星仍在工作。
2D Orbit Map
3D Orbit Map
Orbit Altitude Analysis Chart
Orbit Inclination Analysis Chart
Orbit Comprehensive Analysis Chart
View Comprehensive Chart